Auburn, IN

12:54 AM EDT on March 24, 2017 (GMT -0400)
Auburn

Weather History for KGWB - February, 2013

Change the Weather History Date:

Saturday, February 2, 2013

  Actual Average (KFWA) Record (KFWA)
Temperature  
Mean Temperature 20 °F -  
Max Temperature 26 °F 33 °F 58 °F (2016)
Min Temperature 14 °F 16 °F -17 °F (1951)
Degree Days  
Heating Degree Days 45    
Moisture  
Dew Point 15 °F    
Average Humidity 79    
Maximum Humidity 86    
Minimum Humidity 68    
Precipitation  
Precipitation 0.00 in - - ()
Sea Level Pressure  
Sea Level Pressure 30.04 in    
Wind  
Wind Speed 6 mph (SW)    
Max Wind Speed 10 mph    
Max Gust Speed 16 mph    
Visibility 6 miles    
Events Snow    
Averages and records for this station are not official NWS values.
T = Trace of Precipitation, MM = Missing Value Source: NWS Daily Summary

Daily Weather History Graph

Daily Weather History Graph

Search for Another Location

Airport or City:

Trip Planner

Search our weather history database for the weather conditions in past years. The results will help you decide how hot, cold, wet, or windy it might be!

Date:

Astronomy

Feb. 02, 2013 Rise Set
Actual Time 7:50 AM EST 5:58 PM EST
Civil Twilight 7:21 AM EST 6:27 PM EST
Nautical Twilight 6:48 AM EST 7:00 PM EST
Astronomical Twilight 6:15 AM EST 7:32 PM EST
Moon 12:08 AM EST (2/2) 10:55 AM EST (2/2)
Length of Visible Light 11h 06m
Length of Day
10h 08m
Waning Gibbous, 60% of the Moon is Illuminated
Feb 2
Waning Gibbous
Feb 3
Last Quarter
Feb 10
New
Feb 17
First Quarter
Feb 25
Full

Hourly Weather History & Observations

Time (EST) Temp. Windchill Dew Point Humidity Pressure Visibility Wind Dir Wind Speed Gust Speed Precip Events Conditions
12:15 AM 14.0 °F 5.1 °F 6.8 °F 73% 30.22 in 10.0 mi SSW 5.8 mph - N/A   Clear
12:55 AM 14.0 °F 5.1 °F 6.8 °F 73% 30.21 in 10.0 mi SSW 5.8 mph - N/A   Scattered Clouds
1:15 AM 14.0 °F 6.5 °F 6.8 °F 73% 30.21 in 10.0 mi SSW 4.6 mph - N/A   Scattered Clouds
1:35 AM 15.8 °F 8.6 °F 8.6 °F 73% 30.20 in 10.0 mi SSW 4.6 mph - N/A   Mostly Cloudy
1:55 AM 15.8 °F 8.6 °F 8.6 °F 73% 30.18 in 10.0 mi SSW 4.6 mph - N/A   Overcast
2:15 AM 17.6 °F 9.3 °F 8.6 °F 68% 30.19 in 10.0 mi SSW 5.8 mph - N/A   Overcast
2:35 AM 17.6 °F 7.3 °F 8.6 °F 68% 30.19 in 10.0 mi SW 8.1 mph - N/A Snow Light Snow
3:15 AM 17.6 °F 8.2 °F 10.4 °F 73% 30.18 in 5.0 mi SW 6.9 mph - N/A Snow Light Snow
3:35 AM 17.6 °F 8.2 °F 12.2 °F 79% 30.17 in 3.0 mi SSW 6.9 mph - N/A Snow Light Snow
3:55 AM 17.6 °F 8.2 °F 12.2 °F 79% 30.16 in 2.5 mi SSW 6.9 mph - N/A Snow Light Snow
4:15 AM 17.6 °F 7.3 °F 12.2 °F 79% 30.15 in 3.0 mi SSW 8.1 mph - N/A Snow Light Snow
4:35 AM 17.6 °F 7.3 °F 12.2 °F 79% 30.14 in 3.0 mi SSW 8.1 mph - N/A Snow Light Snow
4:55 AM 17.6 °F 7.3 °F 14.0 °F 86% 30.13 in 2.5 mi SSW 8.1 mph - N/A Snow Light Snow
5:15 AM 17.6 °F 8.2 °F 14.0 °F 86% 30.11 in 2.0 mi SSW 6.9 mph - N/A Snow Light Snow
5:35 AM 17.6 °F 9.3 °F 14.0 °F 86% 30.10 in 4.0 mi South 5.8 mph - N/A Snow Light Snow
5:55 AM 17.6 °F 7.3 °F 14.0 °F 86% 30.08 in 7.0 mi South 8.1 mph - N/A Snow Light Snow
6:15 AM 17.6 °F 5.7 °F 14.0 °F 86% 30.07 in 3.0 mi South 10.4 mph - N/A Snow Light Snow
6:35 AM 19.4 °F 9.5 °F 14.0 °F 80% 30.07 in 7.0 mi SSW 8.1 mph - N/A Snow Light Snow
6:55 AM 19.4 °F 9.5 °F 14.0 °F 80% 30.06 in 7.0 mi SSW 8.1 mph - N/A Snow Light Snow
7:15 AM 19.4 °F 9.5 °F 14.0 °F 80% 30.06 in 4.0 mi SSW 8.1 mph - N/A Snow Light Snow
7:35 AM 19.4 °F 10.4 °F 14.0 °F 80% 30.06 in 1.8 mi SSW 6.9 mph - N/A Snow Light Snow
7:55 AM 19.4 °F 9.5 °F 14.0 °F 80% 30.05 in 1.5 mi SSW 8.1 mph - N/A Snow Light Snow
8:15 AM 19.4 °F 9.5 °F 14.0 °F 80% 30.05 in 3.0 mi SSW 8.1 mph - N/A Snow Light Snow
8:35 AM 19.4 °F 11.5 °F 14.0 °F 80% 30.04 in 7.0 mi SSW 5.8 mph - N/A Snow Light Snow
8:55 AM 19.4 °F 10.4 °F 15.8 °F 86% 30.04 in 4.0 mi SSW 6.9 mph - N/A Snow Light Snow
9:15 AM 21.2 °F 11.7 °F 15.8 °F 80% 30.03 in 2.0 mi SSW 8.1 mph - N/A Snow Light Snow
9:35 AM 21.2 °F 12.6 °F 17.6 °F 86% 30.03 in 1.0 mi SSW 6.9 mph - N/A Snow Light Snow
9:55 AM 21.2 °F 11.7 °F 17.6 °F 86% 30.02 in 1.0 mi SSW 8.1 mph - N/A Snow Light Snow
10:15 AM 21.2 °F 10.9 °F 17.6 °F 86% 30.01 in 1.5 mi SW 9.2 mph - N/A Snow Light Snow
10:35 AM 23.0 °F 13.1 °F 17.6 °F 80% 30.01 in 1.0 mi SSW 9.2 mph 16.1 mph N/A Snow Light Snow
10:55 AM 23.0 °F 14.7 °F 17.6 °F 80% 30.00 in 1.8 mi SSW 6.9 mph - N/A Snow Light Snow
11:15 AM 23.0 °F 13.9 °F 17.6 °F 80% 30.00 in 2.0 mi SW 8.1 mph - N/A Snow Light Snow
11:35 AM 23.0 °F 13.9 °F 17.6 °F 80% 29.99 in 10.0 mi SSW 8.1 mph - N/A Snow Light Snow
11:55 AM 23.0 °F 15.8 °F 17.6 °F 80% 29.98 in 10.0 mi SW 5.8 mph - N/A Snow Light Snow
12:15 PM 23.0 °F 13.9 °F 17.6 °F 80% 29.98 in 7.0 mi WSW 8.1 mph - N/A   Overcast
12:55 PM 24.8 °F 16.9 °F 19.4 °F 80% 29.96 in 7.0 mi WSW 6.9 mph - N/A   Overcast
1:15 PM 24.8 °F 16.9 °F 19.4 °F 80% 29.96 in 4.0 mi WSW 6.9 mph - N/A Snow Light Snow
1:35 PM 24.8 °F 16.1 °F 19.4 °F 80% 29.95 in 2.5 mi WSW 8.1 mph - N/A Snow Light Snow
1:55 PM 24.8 °F 16.1 °F 19.4 °F 80% 29.95 in 4.0 mi WSW 8.1 mph - N/A Snow Light Snow
2:15 PM 26.6 °F 19.1 °F 19.4 °F 74% 29.94 in 5.0 mi WSW 6.9 mph - N/A Snow Light Snow
2:35 PM 26.6 °F 19.1 °F 19.4 °F 74% 29.94 in 7.0 mi WSW 6.9 mph - N/A Snow Light Snow
2:55 PM 26.6 °F 20.0 °F 19.4 °F 74% 29.94 in 7.0 mi WSW 5.8 mph - N/A Snow Light Snow
3:15 PM 26.6 °F 21.2 °F 19.4 °F 74% 29.93 in 7.0 mi SW 4.6 mph - N/A Snow Light Snow
3:35 PM 26.6 °F 18.2 °F 19.4 °F 74% 29.93 in 4.0 mi WSW 8.1 mph - N/A Snow Light Snow
3:55 PM 26.6 °F 19.1 °F 21.2 °F 80% 29.94 in 2.5 mi WSW 6.9 mph - N/A Snow Light Snow
4:15 PM 26.6 °F 18.2 °F 21.2 °F 80% 29.95 in 4.0 mi WSW 8.1 mph - N/A Snow Light Snow
4:35 PM 26.6 °F 20.0 °F 21.2 °F 80% 29.95 in 4.0 mi WSW 5.8 mph - N/A Snow Light Snow
4:55 PM 26.6 °F 20.0 °F 21.2 °F 80% 29.95 in 2.5 mi WSW 5.8 mph - N/A Snow Light Snow
5:15 PM 26.6 °F 20.0 °F 21.2 °F 80% 29.96 in 2.0 mi West 5.8 mph - N/A Snow Light Snow
5:35 PM 21.2 °F 10.9 °F 17.6 °F 86% 29.97 in 1.2 mi NNW 9.2 mph - N/A Snow Light Snow
5:55 PM 21.2 °F 12.6 °F 17.6 °F 86% 29.98 in 1.2 mi NNW 6.9 mph - N/A Snow Light Snow
6:15 PM 21.2 °F 13.6 °F 17.6 °F 86% 29.98 in 2.5 mi NNW 5.8 mph - N/A Snow Light Snow
6:35 PM 21.2 °F 12.6 °F 15.8 °F 80% 29.99 in 7.0 mi NNW 6.9 mph - N/A Snow Light Snow
6:55 PM 21.2 °F 13.6 °F 15.8 °F 80% 29.99 in 10.0 mi NNW 5.8 mph - N/A Snow Light Snow
7:15 PM 21.2 °F 13.6 °F 15.8 °F 80% 30.00 in 10.0 mi NNW 5.8 mph - N/A   Overcast
7:35 PM 21.2 °F 14.9 °F 14.0 °F 74% 30.00 in 10.0 mi NNW 4.6 mph - N/A   Overcast
8:35 PM 19.4 °F 14.3 °F 14.0 °F 80% 30.00 in 10.0 mi NW 3.5 mph - N/A   Overcast
9:15 PM 19.4 °F 12.8 °F 14.0 °F 80% 30.01 in 10.0 mi NW 4.6 mph - N/A   Overcast
9:35 PM 19.4 °F 14.3 °F 12.2 °F 74% 30.01 in 10.0 mi NW 3.5 mph - N/A   Overcast
9:55 PM 19.4 °F - 12.2 °F 74% 30.01 in 10.0 mi Calm Calm - N/A   Overcast
10:15 PM 19.4 °F - 12.2 °F 74% 30.01 in 10.0 mi Calm Calm - N/A   Overcast
10:35 PM 19.4 °F 14.3 °F 12.2 °F 74% 30.01 in 10.0 mi NW 3.5 mph - N/A   Overcast
10:55 PM 19.4 °F - 12.2 °F 74% 30.01 in 10.0 mi Calm Calm - N/A   Overcast
11:15 PM 19.4 °F 12.8 °F 12.2 °F 74% 30.00 in 10.0 mi NNW 4.6 mph - N/A   Overcast
11:35 PM 19.4 °F 14.3 °F 12.2 °F 74% 30.00 in 10.0 mi NNW 3.5 mph - N/A   Overcast
11:55 PM 17.6 °F 12.3 °F 10.4 °F 73% 30.00 in 10.0 mi NNW 3.5 mph - N/A   Overcast